Charlottesville, VA

2:09 PM EDT on June 25, 2017 (GMT -0400)
Charlottesville-Albemarle

Weather History for KCHO - December, 2013

Change the Weather History Date:

Sunday, December 29, 2013

  Actual Average Record
Temperature  
Mean Temperature 47 °F 35 °F  
Max Temperature 53 °F 44 °F 78 °F (1984)
Min Temperature 40 °F 27 °F 8 °F (1917)
Degree Days  
Heating Degree Days 18 30  
Month to date heating degree days 668 785  
Since 1 July heating degree days 1611 1676  
Cooling Degree Days 0 0  
Month to date cooling degree days 18 0  
Year to date cooling degree days 1164 1035  
Moisture  
Dew Point 40 °F    
Average Humidity 71    
Maximum Humidity 100    
Minimum Humidity 42    
Precipitation  
Precipitation 1.64 in 0.06 in 1.64 in (2013)
Month to date precipitation 4.03 3.02  
Year to date precipitation 44.59 42.58  
Sea Level Pressure  
Sea Level Pressure 29.81 in    
Wind  
Wind Speed 5 mph (NE)    
Max Wind Speed 16 mph    
Max Gust Speed 29 mph    
Visibility 4 miles    
Events Fog , Rain    
T = Trace of Precipitation, MM = Missing Value Source: NWS Daily Summary

Daily Weather History Graph

Daily Weather History Graph

Search for Another Location

Airport or City:

Trip Planner

Search our weather history database for the weather conditions in past years. The results will help you decide how hot, cold, wet, or windy it might be!

Date:

Astronomy

Dec. 29, 2013 Rise Set
Actual Time 7:29 AM EST 5:02 PM EST
Civil Twilight 7:00 AM EST 5:31 PM EST
Nautical Twilight 6:27 AM EST 6:05 PM EST
Astronomical Twilight 5:55 AM EST 6:37 PM EST
Moon 4:12 AM EST (12/29) 2:37 PM EST (12/29)
Length of Visible Light 10h 31m
Length of Day
9h 32m
Waning Crescent, 11% of the Moon is Illuminated
Dec 29
Waning Crescent
Jan 1
New
Jan 7
First Quarter
Jan 15
Full
Jan 24
Last Quarter

Hourly Weather History & Observations

Time (EST) Temp. Windchill Dew Point Humidity Pressure Visibility Wind Dir Wind Speed Gust Speed Precip Events Conditions
12:53 AM 45.0 °F 41.2 °F 26.1 °F 48% 30.11 in 10.0 mi SSW 6.9 mph - N/A   Overcast
1:53 AM 43.0 °F 39.5 °F 33.1 °F 68% 30.10 in 8.0 mi SSW 5.8 mph - 0.02 in Rain Light Rain
2:53 AM 41.0 °F 38.0 °F 37.0 °F 86% 30.08 in 10.0 mi South 4.6 mph - 0.04 in Rain Light Rain
3:53 AM 41.0 °F 39.0 °F 37.9 °F 89% 30.06 in 5.0 mi SSW 3.5 mph - 0.10 in Rain Rain
4:53 AM 39.9 °F - 39.0 °F 97% 30.01 in 4.0 mi Calm Calm - 0.15 in Rain Rain
5:14 AM 39.9 °F - 39.0 °F 97% 30.00 in 5.0 mi Calm Calm - 0.02 in Rain Light Rain
5:29 AM 39.9 °F 37.8 °F 39.0 °F 97% 29.99 in 2.5 mi NNE 3.5 mph - 0.06 in Rain Rain
5:53 AM 39.9 °F 35.8 °F 39.0 °F 97% 29.97 in 3.0 mi NNE 5.8 mph - 0.14 in Rain Rain
6:04 AM 39.9 °F 35.1 °F 39.0 °F 97% 29.95 in 2.5 mi NNE 6.9 mph - 0.03 in Rain Rain
6:12 AM 39.9 °F 35.1 °F 39.0 °F 97% 29.94 in 4.0 mi NNE 6.9 mph - 0.04 in Rain Light Rain
6:20 AM 39.9 °F 35.8 °F 39.0 °F 97% 29.94 in 1.8 mi NNE 5.8 mph - 0.06 in Rain Rain
6:29 AM 39.9 °F 35.8 °F 39.0 °F 97% 29.93 in 2.0 mi NE 5.8 mph - 0.08 in Rain Rain
6:39 AM 39.9 °F 35.1 °F 39.0 °F 97% 29.92 in 2.5 mi NE 6.9 mph - 0.11 in Rain Rain
6:53 AM 39.9 °F 36.7 °F 39.0 °F 97% 29.92 in 1.5 mi North 4.6 mph - 0.15 in Rain Rain
7:01 AM 39.9 °F 35.8 °F 39.0 °F 97% 29.92 in 2.0 mi North 5.8 mph - 0.03 in Rain Rain
7:29 AM 39.9 °F 35.8 °F 39.0 °F 97% 29.92 in 1.8 mi NNW 5.8 mph - 0.14 in Rain Rain
7:36 AM 39.9 °F 37.8 °F 39.0 °F 97% 29.91 in 2.0 mi North 3.5 mph - 0.17 in Rain Rain
7:53 AM 39.9 °F 37.8 °F 39.0 °F 97% 29.91 in 2.5 mi East 3.5 mph - 0.24 in Rain Rain
8:13 AM 39.9 °F 35.8 °F 39.0 °F 97% 29.88 in 3.0 mi ENE 5.8 mph - 0.06 in Rain Rain
8:22 AM 39.9 °F 35.1 °F 39.0 °F 97% 29.87 in 3.0 mi ENE 6.9 mph - 0.08 in Rain Rain
8:31 AM 39.9 °F 34.5 °F 39.0 °F 97% 29.86 in 2.0 mi ENE 8.1 mph - 0.11 in Rain Rain
8:39 AM 39.9 °F 35.8 °F 39.0 °F 97% 29.85 in 2.0 mi ENE 5.8 mph - 0.13 in Rain Rain
8:53 AM 39.9 °F 37.8 °F 39.9 °F 100% 29.86 in 2.0 mi North 3.5 mph - 0.18 in Rain Rain
9:00 AM 39.9 °F 37.8 °F 39.9 °F 100% 29.84 in 1.5 mi NNE 3.5 mph - 0.03 in Rain Rain
9:18 AM 39.9 °F 35.8 °F 39.0 °F 97% 29.81 in 2.0 mi NNE 5.8 mph - 0.08 in Rain Light Rain
9:28 AM 39.9 °F 37.8 °F 39.9 °F 100% 29.82 in 1.2 mi NNW 3.5 mph - 0.13 in Rain Heavy Rain
9:46 AM 41.0 °F 38.0 °F 39.9 °F 96% 29.80 in 1.2 mi NNE 4.6 mph - 0.24 in Rain Heavy Rain
9:53 AM 41.0 °F 35.8 °F 39.9 °F 96% 29.78 in 1.5 mi NE 8.1 mph - 0.27 in Rain Rain
10:09 AM 41.0 °F 39.0 °F 39.9 °F 96% 29.79 in 1.0 mi NNW 3.5 mph - 0.10 in Rain Heavy Rain
10:32 AM 42.1 °F 40.2 °F 42.1 °F 100% 29.79 in 0.8 mi West 3.5 mph - 0.26 in Rain Rain
10:38 AM 43.0 °F - 42.1 °F 97% 29.78 in 1.5 mi Calm Calm - 0.28 in Rain Rain
10:48 AM 42.8 °F - 42.8 °F 100% 29.76 in 2.0 mi Calm Calm - 0.29 in Rain Light Rain
10:49 AM 43.0 °F - 42.1 °F 97% 29.76 in 2.0 mi Calm Calm - 0.30 in Rain Light Rain
11:02 AM 43.0 °F 41.3 °F 43.0 °F 100% 29.75 in 1.2 mi West 3.5 mph - 0.02 in Rain Rain
11:16 AM 44.1 °F - 44.1 °F 100% 29.73 in 2.0 mi Calm Calm - 0.03 in Rain Light Rain
11:35 AM 45.0 °F 43.5 °F 43.0 °F 93% 29.70 in 1.2 mi SE 3.5 mph - 0.04 in Rain Light Rain
11:43 AM 44.1 °F 42.5 °F 44.1 °F 100% 29.68 in 1.0 mi ESE 3.5 mph - 0.04 in   Overcast
11:45 AM 44.1 °F 42.5 °F 44.1 °F 100% 29.68 in 0.5 mi ESE 3.5 mph - 0.04 in Fog Fog
11:53 AM 44.1 °F 42.5 °F 43.0 °F 96% 29.67 in 0.5 mi SE 3.5 mph - 0.05 in Fog Fog
12:00 PM 44.1 °F 42.5 °F 43.0 °F 96% 29.66 in 0.5 mi SE 3.5 mph - N/A Fog Fog
12:05 PM 44.1 °F 42.5 °F 44.1 °F 100% 29.65 in 1.0 mi SSE 3.5 mph - N/A   Mist
12:41 PM 45.0 °F - 45.0 °F 100% 29.61 in 1.0 mi Calm Calm - N/A   Overcast
12:53 PM 46.0 °F - 45.0 °F 96% 29.60 in 1.0 mi Calm Calm - N/A   Overcast
1:00 PM 46.0 °F - 46.0 °F 100% 29.60 in 2.0 mi Calm Calm - N/A   Overcast
1:07 PM 46.9 °F - 45.0 °F 93% 29.65 in 1.0 mi SW 6.9 mph - N/A   Overcast
1:18 PM 46.9 °F - 46.0 °F 97% 29.65 in 2.0 mi Variable 5.8 mph - N/A   Overcast
1:49 PM 48.2 °F - 46.4 °F 93% 29.61 in 10.0 mi SSW 4.6 mph - N/A   Overcast
1:50 PM 48.0 °F - 46.0 °F 93% 29.61 in 10.0 mi SSW 5.8 mph - N/A   Overcast
2:01 PM 48.0 °F - 46.0 °F 93% 29.61 in 10.0 mi Variable 5.8 mph - N/A   Overcast
2:53 PM 50.0 °F - 46.0 °F 86% 29.59 in 10.0 mi Variable 5.8 mph - 0.00 in   Scattered Clouds
3:53 PM 53.1 °F - 44.1 °F 71% 29.62 in 10.0 mi Variable 5.8 mph - N/A   Clear
4:53 PM 52.0 °F - 42.1 °F 69% 29.65 in 10.0 mi WSW 11.5 mph - N/A   Scattered Clouds
5:53 PM 51.1 °F - 41.0 °F 68% 29.70 in 10.0 mi Variable 5.8 mph - N/A   Partly Cloudy
6:53 PM 52.0 °F - 35.1 °F 53% 29.74 in 10.0 mi WNW 11.5 mph 23.0 mph N/A   Clear
7:53 PM 50.0 °F - 35.1 °F 57% 29.79 in 10.0 mi NW 4.6 mph - N/A   Partly Cloudy
8:53 PM 50.0 °F - 34.0 °F 54% 29.81 in 10.0 mi Variable 4.6 mph - N/A   Clear
9:53 PM 46.9 °F - 35.1 °F 63% 29.83 in 10.0 mi Variable 4.6 mph - N/A   Clear
10:53 PM 39.9 °F 35.1 °F 34.0 °F 79% 29.85 in 10.0 mi South 6.9 mph - N/A   Clear
11:53 PM 45.0 °F 41.2 °F 35.1 °F 68% 29.84 in 10.0 mi SSW 6.9 mph - N/A   Clear